Regional Weather Roundup
Issued by NWS

Home | Current Version | Previous Version | Graphics & Text | Print | Product List | Glossary On
Versions: 1 2 3 4 5 6 7 8 9 10 11 12 13 14 15 16 17 18 19 20 21 22 23 24 25 26 27 28
000
ASUS45 KSLC 221710
RWRUT

UTAH REGIONAL WEATHER ROUNDUP
NATIONAL WEATHER SERVICE SALT LAKE CITY UT
1100 AM MDT TUE APR 22 2014

UTZ001>011-023>025-221800-

NORTHERN UTAH

CITY           SKY/WX    TMP DP  RH WIND       PRES   REMARKS
DUGWAY         PTSUNNY   69  29  23 S25G35    29.70F
HILL AFB       CLOUDY    67  29  24 S21G33    29.72S
LOGAN          CLOUDY    68  31  25 SE14G30   29.69F
OGDEN          CLOUDY    69  30  23 S26G32    29.69F
PROVO AIRPORT  CLOUDY    68  37  32 SE10      29.78F
SALT LAKE CITY CLOUDY    70  30  22 S18G31    29.71F
VERNAL         CLOUDY    62  34  35 CALM      29.86F
WENDOVER       PTSUNNY   66  28  24 E8        29.61F
HEBER CITY     CLOUDY    66  32  28 S6        29.80F
WEST JORDAN    SUNNY     66  37  34 SE15G28   29.75F

$$

UTZ012>022-026-027-221800-

SOUTHERN UTAH

CITY           SKY/WX    TMP DP  RH WIND       PRES   REMARKS
BRYCE CANYON   PTSUNNY   60  29  30 S20G36    30.03F
CEDAR CITY     PTSUNNY   67  32  27 SW26G39   29.87F
MILFORD        CLOUDY    70  32  24 S32G43    29.80F
MOAB/CYNLANDS  SUNNY     73  30  20 SE16      29.85F
PRICE          CLOUDY    60  30  32 E7        29.90F
ST GEORGE      CLOUDY    79  36  21 S13       29.80F

$$

REGIONAL REPORTS     COLORADO/ARIZONA

CITY           SKY/WX    TMP DP  RH WIND       PRES   REMARKS
CRAIG, CO      CLOUDY    67  32  27 SW20G32   29.92F
GRAND JUNCTION PTSUNNY   71  31  22 SE20      29.90F
RIFLE          PTSUNNY   60  33  36 CALM      29.97S
MONTROSE       PTSUNNY   70  31  23 SW10      29.99F
CORTEZ         SUNNY     70  32  24 SW10G22   30.06F
PAGE, AZ       CLOUDY    73  30  20 VRB3      29.91F
GRAND CANYON   PTSUNNY   64  29  26 SW21G35   30.06F
KINGMAN        PTSUNNY   78  32  18 S23G36    29.89S
FLAGSTAFF      PTSUNNY   62  27  26 SW20G30   30.10F

$$

REGIONAL REPORTS    NEVADA/IDAHO/WYOMING

CITY           SKY/WX    TMP DP  RH WIND       PRES   REMARKS
LAS VEGAS, NV  CLOUDY    76  24  14 S24G30    29.72F
ELY            PTSUNNY   64  14  14 S31G48    29.72F
ELKO           CLOUDY    57  27  31 W22       29.69F
POCATELLO, ID  PTSUNNY   68  33  27 SW18G33   29.62S
BURLEY         MOSUNNY   60  34  37 W18G29    29.65F
EVANSTON, WY     N/A     61  27  27 SW32G40   29.84F
ROCK SPRINGS   CLOUDY    63  29  27 SW8       29.87F

$$



USA.gov is the U.S. government's official web portal to all federal, state and local government web resources and services.